Home   Weather   Villeurbanne   Past weeks

Flag for France Past Weather in Villeurbanne, Rhône-Alpes, France — Yesterday and Last 2 Weeks

59 °F


Feels Like: 60 °F
Forecast: 57 / 64 °F
Wind: 3 mph from West

Location: Lyon / Bron

Current Time: Oct 25, 2016 at 3:24:38 AM

Latest Report: Oct 25, 2016 at 3:00 AM

Visibility: N/A

Pressure: 30.09 "Hg

Humidity: 94%

Dew Point: 57 °F

Location of VilleurbanneLocation

Past Weather in Villeurbanne — Graph


Villeurbanne Temperature Yesterday

Maximum temperature yesterday: 75 °F (at 2:00 PM)
Minimum temperature yesterday: 57 °F (at 7:00 AM)
Average temperature yesterday: 66 °F

High & Low Weather Summary for the Past Weeks

High75 °F (Oct 24, 2:00 PM)100% (Oct 12, 8:30 AM)30.30 "Hg (Oct 12, 8:30 AM)
Low34 °F (Oct 12, 7:00 AM)42% (Oct 11, 4:30 PM)29.59 "Hg (Oct 14, 7:00 AM)
Average53 °F80%30.00 "Hg
* Reported Oct 10 2:00 AM — Oct 25 2:00 AM, Villeurbanne, Weather by CustomWeather, © 2016

Note: Actual official high and low records may vary slightly from our data, if they occured in-between our weather recording intervals... More about our weather records


Villeurbanne Weather History for the Previous 24 Hours

Scroll right to see more
Time TempWeatherWind HumidityBarometerVisibility
2:00 AM
Tue, Oct 25
59 °FPartly cloudy.No wind94%30.07 "HgN/A
1:30 AM59 °FPassing clouds.2 mph94%30.07 "HgN/A
1:00 AM59 °FMostly cloudy.5 mph94%30.07 "HgN/A
12:30 AM59 °FLight rain. Partly cloudy.3 mph94%30.07 "HgN/A
12:00 AM59 °FMostly cloudy.7 mph94%30.04 "HgN/A
11:30 PM
Mon, Oct 24
59 °FRain. Fog.7 mph94%30.04 "Hg3 mi
11:00 PM61 °FHeavy rain. Partly cloudy.13 mph94%30.01 "Hg4 mi
10:30 PM63 °FThundershowers. Mostly cloudy.8 mph94%30.01 "HgN/A
10:00 PM64 °FLight rain. Overcast.2 mph88%29.98 "HgN/A
9:30 PM68 °FLight rain. Clear.2 mph73%29.95 "HgN/A
9:00 PM68 °FPassing clouds.5 mph73%29.95 "HgN/A
8:30 PM68 °FPassing clouds.5 mph73%29.95 "HgN/A
8:00 PM70 °FPassing clouds.8 mph69%29.92 "HgN/A
7:30 PM70 °FClear.12 mph69%29.92 "Hg10 mi
7:00 PM70 °FClear.10 mph69%29.92 "Hg10 mi
6:30 PM72 °FPassing clouds.12 mph65%29.92 "HgN/A
6:00 PM72 °FPassing clouds.17 mph65%29.89 "HgN/A
5:30 PM73 °FSunny.15 mph57%29.89 "Hg10 mi
5:00 PM73 °FPassing clouds.18 mph61%29.89 "HgN/A
4:30 PM73 °FPassing clouds.21 mph57%29.89 "HgN/A
4:00 PM73 °FSunny.21 mph57%29.89 "Hg10 mi
3:30 PM73 °FSunny.20 mph57%29.89 "Hg10 mi
3:00 PM73 °FBroken clouds.18 mph57%29.89 "HgN/A
2:30 PM73 °FPassing clouds.22 mph57%29.86 "HgN/A
2:00 PM75 °FSunny.17 mph54%29.89 "Hg10 mi
1:30 PM73 °FPassing clouds.15 mph53%29.86 "HgN/A
1:00 PM73 °FSunny.3 mph57%29.86 "Hg10 mi
12:30 PM72 °FPassing clouds.5 mph61%29.89 "HgN/A
12:00 PM68 °FPassing clouds.5 mph69%29.89 "HgN/A
11:30 AM68 °FPassing clouds.3 mph69%29.89 "HgN/A
11:00 AM66 °FSunny.3 mph68%29.89 "Hg10 mi
10:30 AM66 °FSunny.2 mph68%29.89 "Hg10 mi
10:00 AM64 °FPassing clouds.5 mph78%29.89 "HgN/A
9:30 AM64 °FSunny.9 mph73%29.86 "Hg10 mi
9:00 AM63 °FSunny.5 mph77%29.86 "Hg10 mi
8:30 AM61 °FSunny.5 mph83%29.86 "Hg10 mi
8:00 AM63 °FClear.3 mph77%29.83 "Hg10 mi
7:30 AM63 °FClear.6 mph77%29.83 "Hg10 mi
7:00 AM57 °FPassing clouds.3 mph88%29.83 "HgN/A
6:30 AM59 °FClear.6 mph82%29.83 "Hg10 mi
6:00 AM61 °FClear.9 mph83%29.83 "Hg10 mi
5:30 AM61 °FPassing clouds.9 mph83%29.80 "HgN/A
5:00 AM63 °FClear.13 mph77%29.83 "Hg10 mi
4:30 AM59 °FPassing clouds.6 mph82%29.83 "HgN/A
4:00 AM63 °FClear.12 mph77%29.83 "Hg10 mi
3:30 AM63 °FClear.10 mph77%29.83 "Hg10 mi
3:00 AM63 °FPassing clouds.7 mph77%29.83 "HgN/A
Weather by CustomWeather, © 2016

See weather overviewHow to use our weather pages